When you browse on this site, cookies collect data to enhance your experience and personalize the content and advertising you see.
Visit our Privacy Policy to learn more. By continuing to use the site, you agree to this use of cookies and data.
  • en France
  • Liste des pays
  • À 7 jours
  • Température de l'eau
  • Carte satellitaire
  • Carte météo
  • Widgets météo
  • user-avatar
    Se connecter

    Météo par heure à Montana

    Ce jour, 23 Mars, Samedi

    Heure Température Précipitation Vent Pression Humidité
    00:00 +10°C° 0 mm 1 m/s 741 mmHg 56%
    01:00 +10°C° 0 mm 1 m/s 741 mmHg 55%
    02:00 +9°C° 0 mm 1 m/s 741 mmHg 55%
    03:00 +9°C° 0 mm 1 m/s 741 mmHg 55%
    04:00 +9°C° 0 mm 1 m/s 741 mmHg 56%
    05:00 +9°C° 0 mm 1 m/s 740 mmHg 57%
    06:00 +9°C° 0 mm 1 m/s 740 mmHg 56%
    07:00 +10°C° 0 mm 1 m/s 740 mmHg 56%
    08:00 +11°C° 0 mm 1 m/s 741 mmHg 56%
    09:00 +13°C° 0 mm 1 m/s 740 mmHg 53%
    10:00 +14°C° 0 mm 1 m/s 740 mmHg 49%
    11:00 +16°C° 0 mm 1 m/s 740 mmHg 45%
    12:00 +17°C° 0 mm 2 m/s 739 mmHg 44%
    13:00 +17°C° 0 mm 2 m/s 739 mmHg 43%
    14:00 +18°C° 0 mm 2 m/s 739 mmHg 42%
    15:00 +18°C° 0 mm 2 m/s 738 mmHg 43%
    16:00 +18°C° 0 mm 2 m/s 738 mmHg 44%
    17:00 +18°C° 0 mm 2 m/s 738 mmHg 45%
    18:00 +16°C° 0 mm 2 m/s 738 mmHg 51%
    19:00 +15°C° 0 mm 1 m/s 738 mmHg 56%
    20:00 +12°C° 0 mm 0 m/s 738 mmHg 62%
    21:00 +12°C° 0 mm 0 m/s 739 mmHg 64%
    22:00 +12°C° 0 mm 1 m/s 739 mmHg 67%
    23:00 +12°C° 0 mm 1 m/s 740 mmHg 69%

    Demain, 24 Mars, Dimanche

    Heure Température Précipitation Vent Pression Humidité
    00:00 +11°C° 0 mm 1 m/s 740 mmHg 72%
    01:00 +10°C° 0 mm 1 m/s 740 mmHg 75%
    02:00 +10°C° 0 mm 1 m/s 740 mmHg 77%
    03:00 +9°C° 0 mm 1 m/s 740 mmHg 78%
    04:00 +9°C° 0 mm 1 m/s 740 mmHg 78%
    05:00 +8°C° 0 mm 1 m/s 740 mmHg 79%
    06:00 +8°C° 0 mm 1 m/s 740 mmHg 76%
    07:00 +9°C° 0 mm 1 m/s 740 mmHg 73%
    08:00 +9°C° 0 mm 1 m/s 740 mmHg 70%
    09:00 +11°C° 0 mm 1 m/s 740 mmHg 62%
    10:00 +12°C° 0 mm 1 m/s 740 mmHg 55%
    11:00 +14°C° 0 mm 1 m/s 740 mmHg 48%
    12:00 +15°C° 0 mm 2 m/s 739 mmHg 45%
    13:00 +16°C° 0 mm 2 m/s 739 mmHg 41%
    14:00 +17°C° 0 mm 2 m/s 738 mmHg 38%
    15:00 +16°C° 0 mm 2 m/s 738 mmHg 38%
    16:00 +16°C° 0 mm 1 m/s 737 mmHg 39%
    17:00 +16°C° 0 mm 1 m/s 737 mmHg 39%
    18:00 +15°C° 0 mm 1 m/s 737 mmHg 43%
    19:00 +13°C° 0 mm 1 m/s 737 mmHg 48%
    20:00 +12°C° 0 mm 1 m/s 737 mmHg 53%
    21:00 +12°C° 0 mm 1 m/s 737 mmHg 54%
    22:00 +11°C° 0 mm 1 m/s 737 mmHg 55%
    23:00 +11°C° 0 mm 1 m/s 737 mmHg 56%

    Après-demain, 25 Mars, Lundi

    Heure Température Précipitation Vent Pression Humidité
    00:00 +11°C° 0 mm 1 m/s 736 mmHg 57%
    01:00 +10°C° 0 mm 1 m/s 736 mmHg 58%
    02:00 +10°C° 0 mm 1 m/s 736 mmHg 58%
    03:00 +9°C° 0 mm 2 m/s 736 mmHg 60%
    04:00 +9°C° 0 mm 2 m/s 735 mmHg 61%
    05:00 +8°C° 0 mm 2 m/s 735 mmHg 63%
    06:00 +9°C° 0 mm 2 m/s 735 mmHg 62%
    07:00 +10°C° 0 mm 2 m/s 735 mmHg 61%
    08:00 +12°C° 0 mm 2 m/s 735 mmHg 61%
    09:00 +14°C° 0 mm 1 m/s 734 mmHg 52%
    10:00 +16°C° 0 mm 1 m/s 734 mmHg 44%
    11:00 +19°C° 0 mm 1 m/s 734 mmHg 35%
    12:00 +20°C° 0 mm 1 m/s 733 mmHg 32%
    13:00 +20°C° 0 mm 2 m/s 732 mmHg 29%
    14:00 +20°C° 0 mm 2 m/s 732 mmHg 25%
    15:00 +20°C° 0 mm 2 m/s 731 mmHg 27%
    16:00 +20°C° 0 mm 2 m/s 731 mmHg 28%
    17:00 +19°C° 0 mm 2 m/s 730 mmHg 29%
    18:00 +18°C° 0 mm 2 m/s 730 mmHg 34%
    19:00 +16°C° 0 mm 1 m/s 730 mmHg 39%
    20:00 +14°C° 0 mm 1 m/s 730 mmHg 44%
    21:00 +13°C° 0 mm 1 m/s 730 mmHg 47%
    22:00 +13°C° 0 mm 1 m/s 730 mmHg 49%
    23:00 +12°C° 0 mm 1 m/s 730 mmHg 52%

    26 Mars, Mardi

    Heure Température Précipitation Vent Pression Humidité
    00:00 +12°C° 0 mm 2 m/s 730 mmHg 54%
    01:00 +12°C° 0 mm 2 m/s 731 mmHg 56%
    02:00 +10°C° 0 mm 2 m/s 731 mmHg 57%
    03:00 +10°C° 0 mm 3 m/s 731 mmHg 61%
    04:00 +8°C° 0 mm 4 m/s 731 mmHg 64%
    05:00 +7°C° 0 mm 6 m/s 732 mmHg 67%
    06:00 +7°C° 0.1 mm 6 m/s 733 mmHg 66%
    07:00 +7°C° 0.1 mm 5 m/s 733 mmHg 64%
    08:00 +6°C° 0.1 mm 5 m/s 734 mmHg 62%
    09:00 +7°C° 0 mm 5 m/s 734 mmHg 57%
    10:00 +8°C° 0 mm 5 m/s 735 mmHg 52%
    11:00 +9°C° 0 mm 6 m/s 735 mmHg 47%
    12:00 +9°C° 0 mm 6 m/s 735 mmHg 45%
    13:00 +9°C° 0 mm 6 m/s 735 mmHg 43%
    14:00 +9°C° 0 mm 6 m/s 735 mmHg 41%
    15:00 +9°C° 0 mm 6 m/s 735 mmHg 41%
    16:00 +9°C° 0 mm 5 m/s 735 mmHg 41%
    17:00 +9°C° 0 mm 5 m/s 735 mmHg 41%
    18:00 +8°C° 0 mm 4 m/s 735 mmHg 42%
    19:00 +8°C° 0 mm 4 m/s 736 mmHg 44%
    20:00 +8°C° 0 mm 3 m/s 736 mmHg 45%
    21:00 +7°C° 0.1 mm 3 m/s 737 mmHg 49%
    22:00 +7°C° 0.1 mm 3 m/s 737 mmHg 53%
    23:00 +7°C° 0.1 mm 2 m/s 737 mmHg 57%

    27 Mars, Mercredi

    Heure Température Précipitation Vent Pression Humidité
    00:00 +6°C° 0.2 mm 2 m/s 738 mmHg 63%
    01:00 +6°C° 0.2 mm 2 m/s 738 mmHg 69%
    02:00 +5°C° 0.2 mm 2 m/s 738 mmHg 75%
    03:00 +5°C° 0.3 mm 2 m/s 738 mmHg 78%
    04:00 +5°C° 0.3 mm 2 m/s 738 mmHg 81%
    05:00 +4°C° 0.3 mm 2 m/s 738 mmHg 83%
    06:00 +6°C° 0.1 mm 1 m/s 739 mmHg 80%
    07:00 +6°C° 0.1 mm 1 m/s 739 mmHg 77%
    08:00 +6°C° 0.1 mm 1 m/s 739 mmHg 74%
    09:00 +7°C° 0 mm 1 m/s 740 mmHg 68%
    10:00 +7°C° 0 mm 2 m/s 740 mmHg 62%
    11:00 +7°C° 0 mm 2 m/s 740 mmHg 57%
    12:00 +8°C° 0 mm 2 m/s 739 mmHg 54%
    13:00 +9°C° 0 mm 2 m/s 739 mmHg 52%
    14:00 +10°C° 0 mm 2 m/s 739 mmHg 49%
    15:00 +9°C° 0 mm 2 m/s 739 mmHg 48%
    16:00 +9°C° 0 mm 2 m/s 739 mmHg 47%
    17:00 +10°C° 0 mm 1 m/s 739 mmHg 46%
    18:00 +9°C° 0 mm 1 m/s 739 mmHg 49%
    19:00 +8°C° 0 mm 1 m/s 740 mmHg 52%
    20:00 +7°C° 0 mm 1 m/s 740 mmHg 54%
    21:00 +7°C° 0 mm 1 m/s 740 mmHg 55%
    22:00 +6°C° 0 mm 1 m/s 740 mmHg 57%
    23:00 +5°C° 0 mm 1 m/s 741 mmHg 58%

    28 Mars, Jeudi

    Heure Température Précipitation Vent Pression Humidité
    00:00 +4°C° 0 mm 2 m/s 741 mmHg 59%
    01:00 +4°C° 0 mm 2 m/s 741 mmHg 60%
    02:00 +3°C° 0 mm 2 m/s 741 mmHg 61%
    03:00 +3°C° 0 mm 2 m/s 741 mmHg 62%
    04:00 +3°C° 0 mm 2 m/s 741 mmHg 63%
    05:00 +3°C° 0 mm 2 m/s 741 mmHg 65%
    06:00 +4°C° 0 mm 1 m/s 742 mmHg 63%
    07:00 +5°C° 0 mm 1 m/s 742 mmHg 61%
    08:00 +6°C° 0 mm 1 m/s 743 mmHg 59%
    09:00 +7°C° 0 mm 1 m/s 743 mmHg 55%
    10:00 +7°C° 0 mm 2 m/s 743 mmHg 52%
    11:00 +8°C° 0 mm 2 m/s 743 mmHg 49%
    12:00 +9°C° 0 mm 2 m/s 742 mmHg 48%
    13:00 +10°C° 0 mm 2 m/s 742 mmHg 47%
    14:00 +10°C° 0 mm 3 m/s 742 mmHg 46%
    15:00 +10°C° 0 mm 3 m/s 742 mmHg 48%
    16:00 +10°C° 0 mm 3 m/s 742 mmHg 49%
    17:00 +9°C° 0 mm 3 m/s 741 mmHg 51%
    18:00 +8°C° 0 mm 2 m/s 742 mmHg 55%
    19:00 +8°C° 0 mm 1 m/s 742 mmHg 60%
    20:00 +6°C° 0 mm 1 m/s 742 mmHg 64%
    21:00 +6°C° 0 mm 1 m/s 742 mmHg 64%
    22:00 +6°C° 0 mm 1 m/s 743 mmHg 64%
    23:00 +5°C° 0 mm 1 m/s 743 mmHg 64%
    Voir plus